Location: Navalmoral
(40.4603°N, 4.7686°W)
Time: 17:58:50
(UTC+00:00)

Cosmos 2218 Rocket - Pass Details

Date: 05 August 2024
Orbit: 956 x 1005 km, 82.9° (Epoch: 18 September)

Event Time Altitude Azimuth Distance (km) Brightness Sun altitude
Rises 20:09:37 0° 193° (SSW) 3,633 6.8 -7.8°
Reaches altitude 10° 20:12:07 10° 196° (SSW) 2,696 6.2 -8.2°
Maximum altitude 20:18:16 68° 279° (W) 1,044 4.4 -9.2°
Drops below altitude 10° 20:24:32 10° 2° (N) 2,747 6.8 -10.2°
Sets 20:27:06 0° 5° (N) 3,707 7.4 -10.6°
